Preview of NWS' New Version of Forecast
This preview is not operational and should not be used for support decisions.

Regional Weather Roundup (RWR)

Issued by Philadelphia/Mt Holly (PHI)

                            
000
ASUS41 KPHI 252012
RWRPHI

REGIONAL WEATHER ROUNDUP
NATIONAL WEATHER SERVICE MOUNT HOLLY NJ
400 PM EDT SAT MAY 25 2019

NOTE:  "FAIR" INDICATES FEW OR NO CLOUDS BELOW 12,000 FEET WITH NO
SIGNIFICANT WEATHER AND/OR OBSTRUCTIONS TO VISIBILITY.

 * = STATION DOES NOT REPORT PRECIPITATION (E.G. RAIN, SNOW, ETC.) 
        OR FOG.

NJZ015>026-252100-
SOUTHERN NEW JERSEY
  
CITY           SKY/WX    TMP DP  RH WIND       PRES   REMARKS
POMONA         FAIR      68  53  58 SE14      30.18F                  
WILDWOOD*      FAIR      69  55  60 SE16      30.18F                  
MILLVILLE      FAIR      70  54  56 S10G21    30.16F                  
WRIGHTSTOWN    MOSUNNY   72  52  48 S10       30.12F                  
MOUNT HOLLY    FAIR      74  56  53 VRB5      30.13F                  
TRENTON        PTSUNNY   72  54  53 S10G17    30.13F                  

$$
NJZ001>014-252100-
NORTHERN NEW JERSEY
  
CITY           SKY/WX    TMP DP  RH WIND       PRES   REMARKS
SUSSEX         CLOUDY    69  57  65 S8        30.12F                  
ANDOVER*         N/A     70  55  59 SW8       30.12F                  
MORRISTOWN     PTSUNNY   72  55  56 S10       30.13F                  
NEWARK         PTSUNNY   68  49  50 SE15G21   30.14F                  
TETERBORO      FAIR      69  49  48 S13       30.13F                  
CALDWELL       CLOUDY    71  52  50 SE12G20   30.14F                  
SOMERVILLE     PTSUNNY   72  56  57 S9        30.11F                  
ALLAIRE*       FAIR      66  44  45 SE13G22   30.18F                  
TOMS RIVER*    FAIR      70  49  47 S14       30.17F                  

$$
PAZ043-044-047-054-055-060>062-066>071-252100-
EASTERN PENNSYLVANIA
  
CITY           SKY/WX    TMP DP  RH WIND       PRES   REMARKS
PHILADELPHIA   PTSUNNY   74  54  49 S10       30.13F                  
NORTH PHILA    FAIR      74  53  48 VRB7      30.14F                  
BLUE BELL*     PTSUNNY   73  56  55 SE8       30.14S                  
DOYLESTOWN     FAIR      71  53  52 S9        30.12F                  
QUAKERTOWN*    MOSUNNY   73  55  53 SE8G15    30.13F                  
PERKASIE*      MOCLDY    72  55  56 SW5       30.14F                  
POTTSTOWN      PTSUNNY   71  54  54 S9        30.14F                  
LANCASTER      FAIR      73  60  63 S14       30.12S                  
COATESVILLE    FAIR      68  57  68 SE8G15    30.15S                  
WEST CHESTER   FAIR      72  54  53 SE8       30.15R                  
READING        FAIR      74  59  59 S8        30.10F                  
ALLENTOWN      PTSUNNY   73  55  53 S13       30.11F                  
QN CITY/ALNTWN FAIR      72  55  56 S9        30.12F                  
MOUNT POCONO   FAIR      66  55  67 S13       30.12F                  
HAZLETON       PTSUNNY   68  54  60 S9G16     30.13F                  
LEHIGHTON      FAIR      72  55  56 S6        30.11F                  
WILKES BARRE   PTSUNNY   71  55  56 S10G18    30.06F                  

$$
DEZALL-MDZ008-012-015-019-020-252100-
DELAWARE AND EASTERN MARYLAND
  
CITY           SKY/WX    TMP DP  RH WIND       PRES   REMARKS
WILMINGTON     FAIR      71  55  56 S18       30.15F                  
DOVER          SUNNY     68  57  67 E13G25    30.14                   
CHESWOLD         N/A     70  57  64 E13       30.15S                  
GEORGETOWN     FAIR      73  57  57 S13       30.16F                  
EASTON         SUNNY     79  59  50 SE12G18   30.16F                  
STEVENSVILLE   FAIR      79  61  53 S15       30.12S                  
PATUXENT       FAIR      74  64  71 SE16G25   30.13                   
OCEAN CITY     FAIR      67  58  72 SE12      30.19F                  
WALLOPS ISLAND FAIR      71  59  65 SE13      30.18F                  
CAMBRIDGE      SUNNY     77  59  53 S15       30.13F                  
SALISBURY      FAIR      73  58  59 SE15      30.16F                  

$$
PAZ001-021-NYZ056-072-MDZ011-DCZ001-252100-
OTHER NEARBY LOCATIONS
  
CITY           SKY/WX    TMP DP  RH WIND       PRES   REMARKS
HARRISBURG     CLOUDY    74  60  61 SE12      30.08F                  
STATE COLLEGE  MOSUNNY   75  63  64 S10       30.04F                  
WILLIAMSPORT   FAIR      75  57  53 SE9G24    30.02F                  
BINGHAMTON     FAIR      70  57  63 S10       30.02F                  
NEW YORK CITY  FAIR      67  48  50 MISG      30.18F                  
BALTIMORE      FAIR      78  60  53 SE9G22    30.11S                  
WASHINGTON DC  FAIR      81  64  56 S13       30.09F                  

$$